This is the latest recevied weather packets stored in our database for station/object DM8MH-13. If no packets are shown the sender has not sent any weather packets the latest 1 day(s).
| Time | Temp. | Humidity | Pressure | Rain* | Wind** | Luminosity | Snow |
|---|---|---|---|---|---|---|---|
| 1836274446 | 15.56° C | 80% | 1018 hPa | 0 mm | 0 m/s | 0 W/m² | - |
| 1836274295 | 15.56° C | 80% | 1017.9 hPa | 0 mm | 0 m/s | 0 W/m² | - |
| 1778005270 | 16.67° C | 82% | 1005.3 hPa | 0 mm | 1.79 m/s, 50° | 0 W/m² | - |
| 1778004669 | 16.67° C | 82% | 1005.4 hPa | 0 mm | 1.79 m/s, 50° | 5 W/m² | - |
| 1778004069 | 17.22° C | 81% | 1005.5 hPa | 0 mm | 1.79 m/s, 5° | 11 W/m² | - |
| 1778003470 | 17.22° C | 80% | 1005.5 hPa | 0 mm | 1.34 m/s, 21° | 18 W/m² | - |
| 1778002871 | 17.78° C | 78% | 1005.5 hPa | 0 mm | 2.24 m/s, 360° | 23 W/m² | - |
| 1778002271 | 18.33° C | 77% | 1005.7 hPa | 0 mm | 1.79 m/s, 344° | 19 W/m² | - |
| 1778001670 | 18.33° C | 74% | 1005.8 hPa | 0 mm | 0.89 m/s, 342° | 17 W/m² | - |
| 1778001070 | 18.33° C | 73% | 1005.6 hPa | 0 mm | 1.34 m/s, 71° | 32 W/m² | - |
| 1778000469 | 18.89° C | 73% | 1005.6 hPa | 0 mm | 2.24 m/s, 53° | 23 W/m² | - |
| 1777999870 | 18.89° C | 72% | 1005.7 hPa | 0 mm | 1.34 m/s, 59° | 24 W/m² | - |
| 1777999270 | 18.89° C | 70% | 1005.6 hPa | 0 mm | 2.24 m/s, 11° | 105 W/m² | - |
| 1777998670 | 18.89° C | 70% | 1005.8 hPa | 0 mm | 1.34 m/s, 18° | 152 W/m² | - |
| 1777998070 | 19.44° C | 70% | 1005.8 hPa | 0 mm | 2.24 m/s, 67° | 156 W/m² | - |
| 1777997470 | 19.44° C | 69% | 1005.8 hPa | 0 mm | 1.79 m/s, 52° | 169 W/m² | - |
| 1777996870 | 20° C | 69% | 1005.9 hPa | 0 mm | 0 m/s | 141 W/m² | - |
| 1777996270 | 20° C | 68% | 1005.8 hPa | 0 mm | 1.34 m/s, 53° | 133 W/m² | - |
| 1777995672 | 20° C | 68% | 1006 hPa | 0 mm | 1.79 m/s, 76° | 260 W/m² | - |
| 1777995078 | 20° C | 68% | 1006 hPa | 0 mm | 1.79 m/s, 50° | 277 W/m² | - |
| 1777994472 | 20° C | 68% | 1006.1 hPa | 0 mm | 1.79 m/s, 32° | 353 W/m² | - |
| 1777993872 | 20.56° C | 67% | 1006.1 hPa | 0 mm | 0.89 m/s, 46° | 178 W/m² | - |
| 1777993272 | 20.56° C | 68% | 1006.2 hPa | 0 mm | 1.34 m/s, 157° | 442 W/m² | - |
| 1777992672 | 20.56° C | 66% | 1006.3 hPa | 0 mm | 0.89 m/s, 5° | 211 W/m² | - |
| 1777992073 | 20.56° C | 67% | 1006.4 hPa | 0 mm | 1.79 m/s, 88° | 553 W/m² | - |
* Rain latest hour (hover to see other rain measurements)
** Current wind speed in m/s (hover to see current wind gust speed)